Location: The Jewett Observatory
(46.7288°N, 117.1525°W)
Time: 19:28:53
(UTC-08:00)

Daily predictions for brighter satellites

Satellite Brightness Start Highest point End
(mag) Time Altitude Azimuth Time Altitude Azimuth Time Altitude Azimuth
ERS-2 3.9 17:00:00 10° E 17:01:44 13° ENE 17:03:29 10° NNE
SJ-7 4.4 16:57:54 10° SSE 17:01:59 80° ENE 17:06:09 10° N
Cosmos-2242 3.4 16:58:14 10° NNW 17:02:29 70° W 17:06:42 10° S
GEOS 3 Rocket 4.4 16:58:04 10° E 17:02:45 32° NE 17:07:30 10° NNW
Ariane Rocket 3.0 16:57:54 10° SSE 17:02:54 67° ENE 17:07:58 10° N
Cosmos 2184 Rocket 4.2 16:57:00 10° N 17:03:25 85° W 17:09:48 10° S
Meteor 1-28 Rocket 3.6 17:00:20 10° NNE 17:04:02 45° E 17:07:42 10° S
YAOGAN 1 3.0 17:04:50 10° SE 17:08:53 41° ENE 17:12:57 10° N
Cosmos 1503 Rocket 4.1 17:10:09 10° NNW 17:15:25 62° ENE 17:20:43 10° SE
CSL-04 Debris 4.3 17:11:18 10° SSE 17:16:45 87° WSW 17:22:16 10° NNW
SL-16 R/B 2.8 17:11:33 10° SW 17:17:08 57° WNW 17:22:47 10° NNE
Lacrosse 5 rocket 3.6 17:16:08 10° WNW 17:20:03 32° SW 17:24:06 10° SSE
Cosmos 1302 Rocket 4.1 17:15:36 10° SSW 17:20:54 89° WNW 17:26:15 10° NNE
FENGYUN 3A 4.1 17:16:12 10° SE 17:21:08 39° ENE 17:26:06 10° N
CZ-4 R/B 1.4 17:20:49 10° SSE 17:25:01 83° ENE 17:29:18 10° NNW
ATLAS 5 CENTAUR R/B 3.8 17:21:50 10° WNW 17:25:32 21° NNW 17:29:33 10° NNE
Meteor 2-21 4.4 17:19:30 10° N 17:25:36 64° ENE 17:31:36 10° SSE
Cosmos 1603 3.7 17:24:38 10° SSW 17:30:20 70° ESE 17:36:05 10° NNE
Cosmos 1943 3.6 17:27:56 10° S 17:33:11 41° ESE 17:38:25 10° NE
EO 1 Del DPAF 4.4 17:30:34 12° NE 17:33:21 24° E 17:36:28 10° SSE
Cosmos 1726 2.2 17:32:38 10° N 17:36:14 50° ENE 17:39:48 10° SSE
Cosmos 1992 Rocket 4.3 17:31:33 10° S 17:36:28 45° ESE 17:41:24 10° NNE
USA 161 4.1 17:35:22 10° NNW 17:36:51 15° WNW 17:38:15 10° WSW
USA 215 4.1 17:31:27 12° ENE 17:36:53 37° N 17:42:44 10° WNW
CZ-2C R/B 3.8 17:32:44 10° NNE 17:37:30 66° ESE 17:42:08 10° S
Cosmos 2221 2.6 17:36:20 10° N 17:40:39 57° ENE 17:44:57 10° SSE
Cosmos 2237 Rocket 4.3 17:37:43 10° W 17:41:55 21° NW 17:46:08 10° N
Geosat 4.5 17:37:50 10° NNE 17:42:48 62° WNW 17:47:45 10° SW
COSMO-SKYMED 1 2.7 17:39:27 10° NNE 17:43:42 51° E 17:47:56 10° S
SMAP 4.2 17:39:46 10° S 17:44:15 47° W 17:48:46 10° NNW
Cosmos 1295 Rocket 4.4 17:38:31 10° N 17:44:38 74° E 17:50:44 10° SSE
METEOR-M 4.2 17:41:13 10° SSE 17:46:34 85° WSW 17:51:58 10° NNW
BREEZE-M DEB (TANK) 3.2 17:45:07 10° SW 17:49:57 33° SSE 17:51:18 21° ESE
ERBS 4.5 17:49:02 10° NW 17:51:01 15° N 17:52:01 13° NNE
Cosmos 1674 2.8 17:47:53 10° SSW 17:51:39 73° W 17:55:25 10° N
NOSS 2-1 (C) 3.2 17:48:55 10° SSW 17:52:33 65° SE 17:55:05 22° NE
Landsat 4 3.8 17:49:18 10° NNE 17:52:55 52° E 17:56:34 10° S
NOSS 2-1 (D) 3.2 17:49:33 10° SSW 17:53:11 67° SE 17:55:44 22° NE
SL-14 R/B 3.8 17:49:34 10° SSE 17:53:15 36° E 17:55:44 18° NE
Lacrosse 4 Rocket 3.5 17:51:46 10° W 17:54:55 21° NW 17:58:04 10° N
Cosmos 2263 4.2 17:50:23 10° NNW 17:56:12 79° ENE 18:01:57 10° SSE
Cosmos 968 Rocket 3.4 17:51:09 10° NNW 17:56:19 62° ENE 18:01:23 10° SE
Cosmos 1867 4.2 17:51:07 10° SW 17:56:26 54° NW 18:01:28 12° NNE
Cosmos 2366 rocket 4.1 17:52:17 10° N 17:58:25 51° ENE 18:04:26 10° SSE
Tiangong 1 1.9 17:59:50 10° SW 18:02:00 26° S 18:02:20 25° SSE
BREEZE M DEB (TANK) 4.4 17:57:14 10° SW 18:02:14 70° SE 18:16:04 19° ENE
Cosmos 1315 Rocket 3.5 18:01:31 10° SSE 18:04:59 31° E 18:04:59 31° E
MONITOR-E 4.4 18:04:50 10° S 18:07:52 67° WSW 18:10:55 10° NNW
Cosmos 2341 Rocket 4.3 18:02:17 10° NNW 18:08:30 71° W 18:14:44 10° S
ATLAS 2AS CENTAUR R/B 3.3 18:00:55 10° NW 18:08:52 71° WSW 18:16:12 10° SSE
Cosmos 1300 2.5 18:06:18 10° N 18:10:09 73° E 18:13:58 10° SSE
Cosmos 2369 Rocket 2.8 18:05:21 10° NNW 18:10:56 61° WSW 18:16:31 10° S
Meteor 2-10 4.0 18:06:28 10° NNW 18:11:31 82° W 18:16:35 10° S
Thor Agena Rocket 4.4 18:14:35 28° E 18:14:35 28° E 18:18:46 10° SSE
TELKOM 3 3.9 18:13:23 10° W 18:15:02 41° WNW 18:15:02 41° WNW
Envisat 4.2 18:18:07 24° NE 18:18:07 24° NE 18:20:56 10° N
Meteor 2-8 Rocket 4.4 18:12:42 10° S 18:18:42 59° E 18:24:44 10° NNE
Okean 3 Rocket 3.5 18:14:57 10° S 18:19:30 84° E 18:24:04 10° N
Cosmos 1076 Rocket 3.4 18:15:29 10° S 18:19:50 81° E 18:23:55 12° NNE
NOSS 2-1 (E) 3.4 18:17:39 10° SW 18:21:23 75° NW 18:23:07 33° NNE
Cosmos 1626 4.1 18:18:38 10° SSE 18:19:30 16° SSE 18:19:30 16° SSE
MTI 4.3 18:20:24 19° N 18:22:32 58° WNW 18:25:41 10° SSW
ALOS 3.0 18:21:52 10° S 18:26:26 55° W 18:31:02 10° NNW
Cosmos 1766 Rocket 3.5 18:23:50 10° S 18:28:04 56° E 18:28:50 48° NE
NOSS 3-4 (A) 3.8 18:24:24 10° NW 18:31:17 63° NE 18:35:27 27° ESE
NOSS 3-4 (C) 3.8 18:24:30 10° NW 18:31:23 62° NE 18:35:28 28° ESE
SKYMED 2 4.4 18:27:33 10° N 18:31:46 51° WNW 18:35:58 10° SSW
SPOT 3 Rocket 4.0 18:28:04 10° S 18:33:10 62° WSW 18:38:18 10° NNW
Meteor 2-2 Rocket 4.1 18:28:49 10° N 18:34:40 79° E 18:40:20 10° SSE
ERS-2 2.7 18:31:20 10° S 18:34:57 58° WSW 18:38:37 10° NNW
Cosmos 1943 Rocket 2.8 18:31:45 10° NW 18:37:14 56° WSW 18:42:39 10° S
Cosmos 864 Rocket 4.5 18:31:11 10° N 18:37:33 89° W 18:43:52 10° S
Cosmos 1656 Rocket 3.5 18:32:51 10° NNW 18:38:19 69° ENE 18:40:57 31° SE
Cosmos 1400 Rocket 3.6 18:35:08 10° SSW 18:39:04 52° WNW 18:42:22 15° N
Cosmos 1328 3.6 18:35:52 10° S 18:39:53 81° E 18:40:07 76° NE
GEOS 3 Rocket 3.9 18:35:12 10° SSE 18:40:28 68° SW 18:45:52 10° NW
NOSS 3-3 (A) 4.1 18:34:28 10° SW 18:40:36 74° NW 18:44:29 27° NNE
NOSS 3-3 (C) 4.1 18:34:34 10° SW 18:40:43 74° NW 18:44:34 27° NNE
Cosmos 909 Rocket 4.4 18:35:39 10° NNW 18:42:38 47° NE 18:43:51 42° ENE
FengYun 1-2 T 4.2 18:37:54 10° SSE 18:43:34 87° WSW 18:49:13 10° NNW
H-2A R/B 3.0 18:42:24 10° S 18:46:09 65° W 18:49:59 10° NNW
Cosmos 1777 Rocket 3.9 18:57:16 10° NNW 19:02:32 86° WSW 19:03:43 55° SSE
Cosmos 2098 Rocket 3.5 19:04:00 10° N 19:08:37 82° W 19:14:29 10° S
ATLAS 5 CENTAUR R/B 4.2 19:09:40 10° NNW 19:12:20 14° N 19:12:21 14° N
USA 215 3.7 19:18:48 43° NNE 19:19:02 43° NNE 19:25:08 10° NW
